World > North America > United States > New Jersey

Tennent, New Jersey Regional Weather

Lat: 40.28N, Lon: 74.33W
Wx Zone: NJZ013
Feedback

Tennent, NJ Regional Weather

Expires:201909160300;;854628
ASUS41 KOKX 160214
RWROKX

Regional Weather Roundup
National Weather Service New York NY
1000 PM EDT SUN SEP 15 2019

Note: "FAIR" indicates few or no clouds below 12,000 feet with no
significant weather and/or obstructions to visibility.


NJZ001-105-106-008-010-013-015-019>022-104-160300-
New Jersey
  
CITY           SKY/WX    TMP DP  RH WIND       PRES   REMARKS
Newark/Liberty MOCLDY    76  56  49 W6        30.07S                  
Teterboro      FAIR      72  57  59 W5        30.06S                  
Caldwell       FAIR      69  61  75 CALM      30.09R                  
Somerville     FAIR      63  61  93 CALM      30.07S                  
Linden         FAIR      73  57  57 CALM      30.08S                  
Perth Amboy      N/A     72 N/A N/A W2          N/A                   
Sussex         FAIR      61  58  90 SW6       30.09S                  
Andover          N/A     61  59  93 CALM      30.10S                  
Trenton        FAIR      68  59  73 CALM      30.08S                  
Millville      FAIR      65  61  87 CALM      30.09S                  
Atlantic City  FAIR      69  66  90 N3        30.09S                  
Wrightstown    FAIR      66  63  91 S3        30.09                   
Toms River     FOG      N/A N/A N/A CALM      30.10  VSB 1/4          
Belmar         FAIR      69  68  96 S5        30.10S                  
$$
 

SKY/WX - Weather  TMP - Temperature  DP - Dew Point  RH - Relative Humidity
WIND - Wind Direction/Speed PRES - Barometric Pressure VSB - Visibility
WCI - Wind Chill Index E13G22 Wind - East Wind 13 mph/Gusts of 22 mph